Location: Quedlinburg
(51.7921°N, 11.1414°E)
Time: 09:08:48
(UTC+02:00)

RS-44 - Pass Details

Date: 18 March 2026
Orbit: 1175 x 1510 km, 82.5° (Epoch: 17 April)

Event Time Altitude Azimuth Distance (km) Brightness Sun altitude
Rises 05:20:35 0° 339° (NNW) 4,439 ? -10.4°
Reaches altitude 10° 05:26:52 10° 303° (WNW) 3,547 ? -9.5°
Maximum altitude 05:28:07 10° 295° (WNW) 3,531 ? -9.3°
Drops below altitude 10° 05:29:24 10° 286° (WNW) 3,576 ? -9.1°
Enters shadow 05:30:53 - 276° (W) 3,706 ? -8.9°
